Find Yamal-402

NORAD ID: 39022 Int'l Des: 2012-070 Owner: GAZS Country: RU operational
HEOCIRCULARGSO

实时位置

正在加载3D地球...

关于 Yamal-402

正在加载描述...

即将过境

Passes for default location (London). Set your location on the main map for personalized predictions.

高度历史

Loading altitude history...

两行轨道根数

1 39022U 12070A 26106.95049450 .00000093 00000-0 00000-0 0 9999
2 39022 1.1065 84.8679 0003837 297.7213 219.5831 1.00272480 48785
Epoch: Apr 16, 2026 • Age: 10 hours

当前状态

高度 35770.2 km
速度 3.08 km/s
星下点 -0.82°S, 54.91°E
发射日期 Dec 8, 2012
运行时间 13.3 years
类型 other

技术详情

分类 Payload
质量 4463.00 kg
干质量 2000.00 kg
总质量 4463.00 kg
长度 5.50 m
直径 2.50 m
跨度 38.00 m
形状 Box + 2 pan
制造商 THALES
平台类型 Spacebus 4000C3
阶段状态 In Orbit
所有者/国家 GAZS/RU

Most Searched